When you browse on this site, cookies collect data to enhance your experience and personalize the content and advertising you see.
Visit our Privacy Policy to learn more. By continuing to use the site, you agree to this use of cookies and data.
  • In Hungary
  • List of Countries
  • For 7 days
  • Water Temperature
  • Satellite Maps
  • Weather Map
  • News
  • Weather Widgets
  • user-avatar
    Login

    Hourly Weather Nietuszkowo

    Today, 16 January, Wednesday

    Time Temperature Precipitation Wind Pressure Humidity
    00:00 +3°C° 0.1 mm 7 mps 741 mmHg 85%
    01:00 +3°C° 0 mm 5 mps 742 mmHg 83%
    02:00 +3°C° 0.1 mm 5 mps 742 mmHg 85%
    03:00 +2°C° 0.1 mm 5 mps 743 mmHg 87%
    04:00 +3°C° 0.1 mm 4 mps 743 mmHg 90%
    05:00 +3°C° 0.3 mm 4 mps 743 mmHg 91%
    06:00 +3°C° 0.3 mm 3 mps 743 mmHg 93%
    07:00 +3°C° 0.3 mm 3 mps 744 mmHg 95%
    08:00 +4°C° 0.2 mm 4 mps 744 mmHg 91%
    09:00 +3°C° 0.2 mm 5 mps 744 mmHg 88%
    10:00 +4°C° 0.2 mm 6 mps 744 mmHg 85%
    11:00 +4°C° 0 mm 6 mps 744 mmHg 83%
    12:00 +4°C° 0 mm 6 mps 744 mmHg 81%
    13:00 +5°C° 0 mm 6 mps 744 mmHg 79%
    14:00 +4°C° 0 mm 6 mps 744 mmHg 81%
    15:00 +4°C° 0 mm 6 mps 744 mmHg 83%
    16:00 +5°C° 0 mm 5 mps 744 mmHg 86%
    17:00 +4°C° 0.1 mm 6 mps 743 mmHg 85%
    18:00 +4°C° 0.1 mm 6 mps 743 mmHg 85%
    19:00 +3°C° 0.1 mm 6 mps 743 mmHg 85%
    20:00 +3°C° 0 mm 6 mps 742 mmHg 84%
    21:00 +3°C° 0 mm 6 mps 742 mmHg 83%
    22:00 +3°C° 0 mm 6 mps 742 mmHg 82%
    23:00 +2°C° 0 mm 6 mps 741 mmHg 82%

    Tomorrow, 17 January, Thursday

    Time Temperature Precipitation Wind Pressure Humidity
    00:00 +2°C° 0 mm 6 mps 740 mmHg 81%
    01:00 +2°C° 0 mm 6 mps 740 mmHg 81%
    02:00 +2°C° 0 mm 6 mps 739 mmHg 78%
    03:00 +2°C° 0 mm 6 mps 739 mmHg 76%
    04:00 +1°C° 0 mm 6 mps 738 mmHg 73%
    05:00 0°C° 0.1 mm 7 mps 738 mmHg 75%
    06:00 0°C° 0.1 mm 7 mps 738 mmHg 76%
    07:00 0°C° 0.1 mm 7 mps 738 mmHg 77%
    08:00 +2°C° 0.1 mm 7 mps 738 mmHg 76%
    09:00 +2°C° 0.1 mm 8 mps 738 mmHg 76%
    10:00 +2°C° 0.1 mm 8 mps 739 mmHg 75%
    11:00 +2°C° 0 mm 8 mps 739 mmHg 71%
    12:00 +4°C° 0 mm 8 mps 739 mmHg 68%
    13:00 +4°C° 0 mm 8 mps 739 mmHg 64%
    14:00 +4°C° 0 mm 7 mps 738 mmHg 66%
    15:00 +3°C° 0 mm 6 mps 738 mmHg 68%
    16:00 +3°C° 0 mm 6 mps 738 mmHg 69%
    17:00 +3°C° 0.8 mm 6 mps 738 mmHg 73%
    18:00 +2°C° 0.8 mm 5 mps 738 mmHg 78%
    19:00 +2°C° 0.8 mm 5 mps 738 mmHg 82%
    20:00 +1°C° 0.1 mm 6 mps 738 mmHg 76%
    21:00 -1°C° 0.1 mm 6 mps 739 mmHg 71%
    22:00 -1°C° 0.1 mm 7 mps 739 mmHg 66%
    23:00 -2°C° 0 mm 7 mps 740 mmHg 66%

    Day after tomorrow, 18 January, Friday

    Time Temperature Precipitation Wind Pressure Humidity
    00:00 -2°C° 0 mm 7 mps 740 mmHg 66%
    01:00 -3°C° 0 mm 7 mps 740 mmHg 67%
    02:00 -2°C° 0 mm 6 mps 741 mmHg 70%
    03:00 -2°C° 0 mm 6 mps 741 mmHg 74%
    04:00 -1°C° 0 mm 5 mps 741 mmHg 77%
    05:00 -1°C° 0 mm 5 mps 742 mmHg 78%
    06:00 -2°C° 0 mm 6 mps 744 mmHg 79%
    07:00 -2°C° 0 mm 6 mps 745 mmHg 79%
    08:00 -2°C° 0.2 mm 6 mps 746 mmHg 76%
    09:00 -2°C° 0.2 mm 6 mps 747 mmHg 73%
    10:00 -2°C° 0.2 mm 6 mps 749 mmHg 70%
    11:00 -1°C° 0 mm 5 mps 750 mmHg 66%
    12:00 -1°C° 0 mm 5 mps 750 mmHg 62%
    13:00 -1°C° 0 mm 5 mps 751 mmHg 58%
    14:00 -1°C° 0 mm 4 mps 752 mmHg 62%
    15:00 -2°C° 0 mm 4 mps 752 mmHg 65%
    16:00 -1°C° 0 mm 3 mps 753 mmHg 68%
    17:00 -2°C° 0 mm 3 mps 753 mmHg 73%
    18:00 -2°C° 0 mm 3 mps 754 mmHg 77%
    19:00 -2°C° 0 mm 3 mps 754 mmHg 82%
    20:00 -2°C° 0 mm 3 mps 754 mmHg 83%
    21:00 -2°C° 0 mm 3 mps 754 mmHg 84%
    22:00 -2°C° 0 mm 3 mps 754 mmHg 84%
    23:00 -2°C° 0 mm 3 mps 754 mmHg 84%

    19 January, Saturday

    Time Temperature Precipitation Wind Pressure Humidity
    00:00 -2°C° 0 mm 3 mps 754 mmHg 83%
    01:00 -2°C° 0 mm 3 mps 755 mmHg 82%
    02:00 -2°C° 0 mm 3 mps 754 mmHg 81%
    03:00 -2°C° 0 mm 3 mps 754 mmHg 81%
    04:00 -2°C° 0 mm 3 mps 754 mmHg 80%
    05:00 -2°C° 0 mm 3 mps 754 mmHg 81%
    06:00 -2°C° 0 mm 3 mps 754 mmHg 82%
    07:00 -2°C° 0 mm 3 mps 755 mmHg 83%
    08:00 -2°C° 0 mm 3 mps 755 mmHg 82%
    09:00 -2°C° 0 mm 2 mps 755 mmHg 81%
    10:00 -1°C° 0 mm 2 mps 755 mmHg 80%
    11:00 -1°C° 0 mm 2 mps 755 mmHg 77%
    12:00 +1°C° 0 mm 2 mps 755 mmHg 74%
    13:00 +2°C° 0 mm 2 mps 755 mmHg 71%
    14:00 +1°C° 0 mm 2 mps 755 mmHg 74%
    15:00 +1°C° 0 mm 2 mps 755 mmHg 78%
    16:00 +1°C° 0 mm 1 mps 754 mmHg 81%
    17:00 +1°C° 0 mm 1 mps 755 mmHg 82%
    18:00 0°C° 0 mm 1 mps 755 mmHg 83%
    19:00 0°C° 0 mm 1 mps 755 mmHg 85%
    20:00 0°C° 0 mm 1 mps 755 mmHg 84%
    21:00 0°C° 0 mm 1 mps 755 mmHg 84%
    22:00 0°C° 0 mm 1 mps 755 mmHg 84%
    23:00 0°C° 0 mm 1 mps 755 mmHg 84%

    20 January, Sunday

    Time Temperature Precipitation Wind Pressure Humidity
    00:00 0°C° 0 mm 1 mps 755 mmHg 83%
    01:00 -1°C° 0 mm 1 mps 755 mmHg 82%
    02:00 -1°C° 0 mm 1 mps 755 mmHg 82%
    03:00 -1°C° 0 mm 1 mps 755 mmHg 83%
    04:00 -1°C° 0 mm 1 mps 755 mmHg 83%
    05:00 -1°C° 0 mm 1 mps 755 mmHg 83%
    06:00 -1°C° 0 mm 1 mps 755 mmHg 84%
    07:00 -1°C° 0 mm 1 mps 755 mmHg 84%
    08:00 -2°C° 0 mm 2 mps 755 mmHg 82%
    09:00 -2°C° 0 mm 2 mps 756 mmHg 79%
    10:00 -1°C° 0 mm 2 mps 756 mmHg 77%
    11:00 -1°C° 0 mm 3 mps 756 mmHg 75%
    12:00 0°C° 0 mm 3 mps 756 mmHg 74%
    13:00 +1°C° 0 mm 3 mps 756 mmHg 73%
    14:00 0°C° 0 mm 3 mps 756 mmHg 75%
    15:00 0°C° 0 mm 3 mps 756 mmHg 76%
    16:00 -1°C° 0 mm 3 mps 756 mmHg 78%
    17:00 -2°C° 0 mm 3 mps 757 mmHg 79%
    18:00 -2°C° 0 mm 3 mps 757 mmHg 80%
    19:00 -3°C° 0 mm 2 mps 758 mmHg 81%
    20:00 -3°C° 0 mm 2 mps 758 mmHg 79%
    21:00 -3°C° 0 mm 2 mps 759 mmHg 78%
    22:00 -4°C° 0 mm 2 mps 759 mmHg 76%
    23:00 -4°C° 0 mm 2 mps 760 mmHg 75%

    21 January, Monday

    Time Temperature Precipitation Wind Pressure Humidity
    00:00 -4°C° 0 mm 2 mps 760 mmHg 73%
    01:00 -4°C° 0 mm 2 mps 761 mmHg 71%
    02:00 -4°C° 0 mm 2 mps 761 mmHg 71%
    03:00 -4°C° 0 mm 2 mps 761 mmHg 71%
    04:00 -4°C° 0 mm 2 mps 762 mmHg 71%
    05:00 -4°C° 0 mm 2 mps 762 mmHg 71%
    06:00 -4°C° 0 mm 2 mps 762 mmHg 72%
    07:00 -2°C° 0 mm 1 mps 762 mmHg 72%
    08:00 -2°C° 0 mm 1 mps 763 mmHg 69%
    09:00 -1°C° 0 mm 1 mps 763 mmHg 66%
    10:00 -1°C° 0 mm 1 mps 764 mmHg 64%
    11:00 0°C° 0 mm 1 mps 764 mmHg 61%
    12:00 0°C° 0 mm 1 mps 764 mmHg 57%
    13:00 +1°C° 0 mm 1 mps 764 mmHg 54%
    14:00 0°C° 0 mm 1 mps 764 mmHg 57%
    15:00 0°C° 0 mm 1 mps 764 mmHg 59%
    16:00 -1°C° 0 mm 1 mps 764 mmHg 62%
    17:00 -1°C° 0 mm 1 mps 763 mmHg 64%
    18:00 -3°C° 0 mm 2 mps 763 mmHg 65%
    19:00 -4°C° 0 mm 2 mps 763 mmHg 67%
    20:00 -4°C° 0 mm 2 mps 763 mmHg 68%
    21:00 -4°C° 0 mm 2 mps 763 mmHg 69%
    22:00 -4°C° 0 mm 2 mps 763 mmHg 70%
    23:00 -4°C° 0 mm 2 mps 763 mmHg 71%
    Show more